Time,TemperatureF,DewpointF,PressureIn,WindDirection,WindDirectionDegrees,WindSpeedMPH,WindSpeedGustMPH,Humidity,HourlyPrecipIn,Conditions,Clouds,dailyrainin,SoftwareType,DateUTC
2014-09-16 00:24:00,58.0,58.0,-100.00,NNW,330,1.0,7.0,100,0.00,,,-99.99,,2014-09-16 04:24:00,
2014-09-16 07:23:00,56.0,56.0,-100.00,NE,40,3.0,6.0,100,0.00,,,-99.99,,2014-09-16 11:23:00,
2014-09-16 08:53:00,55.0,55.0,-100.00,North,350,4.0,9.0,99,0.00,,,-99.99,,2014-09-16 12:53:00,
2014-09-16 09:22:00,55.0,53.0,-100.00,NE,35,4.0,10.0,92,0.00,,,-99.99,,2014-09-16 13:22:00,
2014-09-16 09:53:00,55.0,54.0,-100.00,NNW,345,6.0,8.0,94,0.00,,,-99.99,,2014-09-16 13:53:00,
2014-09-16 10:22:00,55.0,53.0,-100.00,North,355,6.0,10.0,92,0.00,,,-99.99,,2014-09-16 14:22:00,
2014-09-16 10:52:00,56.0,52.0,-100.00,North,0,5.0,9.0,88,0.00,,,-99.99,,2014-09-16 14:52:00,
2014-09-16 11:22:00,57.0,52.0,-100.00,North,5,4.0,9.0,85,0.00,,,-99.99,,2014-09-16 15:22:00,
2014-09-16 11:54:00,57.0,52.0,-100.00,NNE,15,4.0,12.0,82,0.00,,,-99.99,,2014-09-16 15:54:00,
2014-09-16 12:23:00,56.0,51.0,-100.00,NNE,25,4.0,9.0,84,0.00,,,-99.99,,2014-09-16 16:23:00,
2014-09-16 12:53:00,57.0,52.0,-100.00,North,5,4.0,9.0,82,0.00,,,-99.99,,2014-09-16 16:53:00,
2014-09-16 13:23:00,57.0,51.0,-100.00,NNE,15,6.0,7.0,78,0.00,,,-99.99,,2014-09-16 17:23:00,
2014-09-16 13:53:00,57.0,50.0,-100.00,NNW,335,4.0,9.0,76,0.00,,,-99.99,,2014-09-16 17:53:00,
2014-09-16 14:23:00,58.0,51.0,-100.00,North,10,4.0,7.0,76,0.00,,,-99.99,,2014-09-16 18:23:00,
2014-09-16 14:52:00,58.0,51.0,-100.00,NNE,25,5.0,8.0,75,0.00,,,-99.99,,2014-09-16 18:52:00,
2014-09-16 15:22:00,59.0,51.0,-100.00,NNW,345,4.0,6.0,73,0.00,,,-99.99,,2014-09-16 19:22:00,
2014-09-16 15:52:00,58.0,50.0,-100.00,NE,35,3.0,9.0,74,0.00,,,-99.99,,2014-09-16 19:52:00,
2014-09-16 16:23:00,59.0,49.0,-100.00,WNW,295,3.0,6.0,69,0.00,,,-99.99,,2014-09-16 20:23:00,
2014-09-16 16:52:00,59.0,50.0,-100.00,North,0,2.0,6.0,71,0.00,,,-99.99,,2014-09-16 20:52:00,
2014-09-16 17:22:00,59.0,51.0,-100.00,NE,40,1.0,4.0,72,0.00,,,-99.99,,2014-09-16 21:22:00,
2014-09-16 17:54:00,59.0,49.0,-100.00,North,0,2.0,4.0,68,0.00,,,-99.99,,2014-09-16 21:54:00,
2014-09-16 18:23:00,59.0,50.0,-100.00,North,10,1.0,3.0,72,0.00,,,-99.99,,2014-09-16 22:23:00,